contact:dominique.lefevre@mio.osupytheas.fr, maurice.libes@osupytheas.fr, didier.mallarino@osupytheas.fr
Project:EMSO http://www.emso-fr.org/EMSO-France
Depth: 2436.0 m
Title:EMSO Ligure Ouest : Data MII capteur AQUADOPP
Date,Latitude,Longitude,X_East,Y_North,Z_Up,Amplitude_X,Amplitude_Y,Amplitude_Z,Batterie,SoundSpeed,Heading,Pitch,Roll,Pressure,TIS,Speed,Direction
, degrees North, degrees East, m.s-1, m.s-1,m.s-1, 1, 1, 1, Volt, m.s-1, degree, degree, degree, dbar, degree_C, m.s-1, degree
2023-03-03T00:04:03,42.805,6.029,-0.024,0.01,-0.006,110.0,109.0,105.0,13.4,1505.2,328.5,-0.8,1.8,2471.249,13.29,0.026,292.6
2023-03-03T00:07:03,42.805,6.029,-0.033,0.018,-0.019,108.0,108.0,106.0,13.4,1505.2,322.9,-0.8,1.8,2471.258,13.29,0.037,298.6
2023-03-03T00:10:03,42.805,6.029,-0.022,0.035,0.007,108.0,108.0,106.0,13.4,1505.2,336.2,-0.8,1.8,2471.244,13.29,0.041,327.8
2023-03-03T00:13:03,42.805,6.029,-0.014,0.006,-0.021,107.0,108.0,106.0,13.3,1505.2,322.3,-0.8,1.8,2471.228,13.29,0.015,293.2
2023-03-03T00:16:03,42.805,6.029,-0.02,0.014,0.031,108.0,107.0,105.0,13.3,1505.2,326.3,-0.7,1.8,2471.232,13.29,0.024,305.0
2023-03-03T00:19:03,42.805,6.029,-0.039,0.007,-0.004,109.0,108.0,104.0,13.4,1505.2,326.0,-0.7,1.8,2471.244,13.29,0.039,280.2
2023-03-03T00:22:03,42.805,6.029,-0.039,0.003,-0.008,109.0,107.0,106.0,13.3,1505.2,336.6,-0.8,1.8,2471.257,13.29,0.039,274.4
2023-03-03T00:25:03,42.805,6.029,-0.027,0.032,-0.018,110.0,108.0,107.0,13.4,1505.2,326.5,-0.8,1.8,2471.233,13.29,0.041,319.8
2023-03-03T00:28:03,42.805,6.029,-0.021,0.015,0.022,109.0,108.0,107.0,13.4,1505.2,330.3,-0.8,1.8,2471.208,13.29,0.025,305.5
2023-03-03T00:31:03,42.805,6.029,-0.036,0.022,0.005,111.0,108.0,106.0,13.4,1505.2,333.8,-0.8,1.8,2471.225,13.29,0.042,301.4
2023-03-03T00:34:03,42.805,6.029,-0.038,0.0,-0.014,109.0,109.0,105.0,13.4,1505.2,327.2,-0.8,1.8,2471.218,13.29,0.038,270.0
2023-03-03T00:37:03,42.805,6.029,-0.046,0.003,0.009,108.0,108.0,106.0,13.3,1505.2,318.6,-0.8,1.8,2471.254,13.29,0.046,273.7
2023-03-03T00:40:03,42.805,6.029,-0.03,0.007,-0.005,109.0,108.0,105.0,13.4,1505.2,315.5,-0.8,1.8,2471.216,13.29,0.03,283.1
2023-03-03T00:43:03,42.805,6.029,-0.035,0.007,0.004,109.0,108.0,105.0,13.4,1505.2,316.0,-0.8,1.8,2471.24,13.29,0.035,281.3
2023-03-03T00:46:03,42.805,6.029,-0.026,0.032,-0.009,109.0,109.0,106.0,13.4,1505.2,320.6,-0.8,1.8,2471.248,13.29,0.041,320.9
2023-03-03T00:49:03,42.805,6.029,-0.031,0.02,-0.031,108.0,108.0,105.0,13.4,1505.2,333.0,-0.8,1.8,2471.243,13.29,0.036,302.8
2023-03-03T00:52:03,42.805,6.029,-0.029,0.008,-0.011,108.0,109.0,106.0,13.4,1505.2,333.4,-0.8,1.8,2471.256,13.29,0.03,285.4
2023-03-03T00:55:03,42.805,6.029,-0.021,0.016,0.015,109.0,107.0,105.0,13.4,1505.2,320.5,-0.8,1.9,2471.217,13.29,0.026,307.3
2023-03-03T00:58:03,42.805,6.029,0.009,0.0,-0.046,108.0,108.0,106.0,13.4,1505.2,335.2,-0.8,1.8,2471.236,13.29,0.009,90.0
2023-03-03T01:04:03,42.805,6.029,-0.019,0.006,-0.023,109.0,111.0,106.0,13.4,1505.2,336.9,-0.8,1.8,2471.306,13.29,0.019,287.5
2023-03-03T01:07:03,42.805,6.029,-0.013,0.017,-0.005,110.0,109.0,106.0,13.3,1505.2,325.2,-0.7,1.8,2471.309,13.29,0.021,322.6
2023-03-03T01:10:03,42.805,6.029,-0.032,0.011,-0.022,109.0,109.0,105.0,13.3,1505.2,334.2,-0.7,1.8,2471.264,13.29,0.033,289.0
2023-03-03T01:13:03,42.805,6.029,-0.033,0.018,0.01,108.0,108.0,106.0,13.4,1505.2,323.1,-0.7,1.8,2471.252,13.29,0.037,298.6
2023-03-03T01:16:03,42.805,6.029,-0.016,0.0,0.003,109.0,109.0,104.0,13.4,1505.2,340.6,-0.8,1.8,2471.274,13.29,0.016,270.0
2023-03-03T01:19:03,42.805,6.029,0.008,0.022,-0.003,109.0,108.0,108.0,13.4,1505.2,335.7,-0.8,1.8,2471.249,13.29,0.023,20.0
2023-03-03T01:22:03,42.805,6.029,-0.014,0.018,-0.029,107.0,109.0,105.0,13.4,1505.2,328.2,-0.8,1.8,2471.251,13.29,0.022,322.1
2023-03-03T01:25:03,42.805,6.029,-0.017,0.019,0.008,109.0,108.0,106.0,13.3,1505.2,340.2,-0.7,1.8,2471.227,13.29,0.025,318.2
2023-03-03T01:28:03,42.805,6.029,-0.029,0.003,0.011,108.0,108.0,108.0,13.3,1505.2,315.5,-0.8,1.8,2471.283,13.29,0.029,275.9
2023-03-03T01:31:03,42.805,6.029,-0.01,0.011,0.003,108.0,109.0,105.0,13.4,1505.2,330.4,-0.7,1.8,2471.253,13.29,0.014,317.7
2023-03-03T01:34:03,42.805,6.029,-0.012,0.003,-0.005,108.0,108.0,105.0,13.3,1505.2,337.6,-0.8,1.8,2471.269,13.29,0.012,284.0
2023-03-03T01:37:03,42.805,6.029,-0.03,0.008,-0.023,109.0,108.0,104.0,13.3,1505.2,330.0,-0.7,1.8,2471.255,13.29,0.031,284.9
2023-03-03T01:40:03,42.805,6.029,-0.02,-0.003,-0.012,108.0,109.0,105.0,13.3,1505.2,319.8,-0.8,1.8,2471.24,13.29,0.02,261.5
2023-03-03T01:43:03,42.805,6.029,0.004,0.004,-0.02,110.0,109.0,106.0,13.4,1505.2,337.1,-0.7,1.8,2471.24,13.29,0.005,45.0
2023-03-03T01:46:03,42.805,6.029,-0.004,0.01,-0.006,108.0,108.0,105.0,13.4,1505.2,321.4,-0.8,1.8,2471.297,13.29,0.01,338.2
2023-03-03T01:49:03,42.805,6.029,-0.024,0.01,-0.011,109.0,107.0,104.0,13.4,1505.2,320.5,-0.7,1.8,2471.213,13.29,0.026,292.6
2023-03-03T01:52:03,42.805,6.029,-0.026,0.011,0.006,109.0,108.0,105.0,13.4,1505.2,328.2,-0.7,1.8,2471.197,13.29,0.028,292.9
2023-03-03T01:55:03,42.805,6.029,-0.02,0.008,-0.025,109.0,107.0,105.0,13.4,1505.2,332.4,-0.7,1.8,2471.262,13.29,0.021,291.8
2023-03-03T01:58:03,42.805,6.029,-0.037,0.016,-0.015,109.0,108.0,106.0,13.4,1505.2,330.8,-0.8,1.8,2471.209,13.29,0.04,293.4
2023-03-03T02:04:03,42.805,6.029,-0.019,0.01,0.005,110.0,109.0,106.0,13.4,1505.2,319.8,-0.7,1.8,2471.266,13.29,0.021,297.8
2023-03-03T02:07:03,42.805,6.029,-0.019,-0.009,-0.013,110.0,109.0,106.0,13.4,1505.2,318.9,-0.8,1.8,2471.321,13.29,0.021,244.7
2023-03-03T02:10:03,42.805,6.029,-0.007,-0.014,-0.033,110.0,107.0,108.0,13.3,1505.2,322.0,-0.8,1.8,2471.34,13.29,0.015,206.6
2023-03-03T02:13:03,42.805,6.029,-0.024,0.013,0.0,109.0,109.0,106.0,13.4,1505.2,322.1,-0.8,1.8,2471.311,13.29,0.027,298.4
2023-03-03T02:16:03,42.805,6.029,-0.021,0.0,-0.022,109.0,108.0,106.0,13.4,1505.2,323.2,-0.7,1.8,2471.284,13.29,0.021,270.0
2023-03-03T02:19:03,42.805,6.029,-0.025,0.0,-0.01,108.0,109.0,105.0,13.3,1505.2,331.3,-0.8,1.8,2471.295,13.29,0.025,270.0
2023-03-03T02:22:03,42.805,6.029,-0.008,0.001,-0.026,109.0,109.0,107.0,13.3,1505.2,333.9,-0.8,1.9,2471.264,13.29,0.008,277.1
2023-03-03T02:25:03,42.805,6.029,-0.008,0.002,-0.009,109.0,107.0,106.0,13.4,1505.2,331.6,-0.8,1.8,2471.278,13.29,0.008,284.0
2023-03-03T02:28:03,42.805,6.029,-0.031,-0.008,-0.034,109.0,107.0,106.0,13.3,1505.2,323.9,-0.8,1.8,2471.27,13.29,0.032,255.5
2023-03-03T02:31:03,42.805,6.029,-0.033,0.0,-0.019,110.0,108.0,106.0,13.4,1505.2,337.8,-0.7,1.8,2471.31,13.29,0.033,270.0
2023-03-03T02:34:03,42.805,6.029,-0.016,-0.011,-0.024,110.0,108.0,106.0,13.3,1505.2,322.2,-0.8,1.8,2471.291,13.29,0.019,235.5
2023-03-03T02:37:03,42.805,6.029,-0.04,0.0,-0.012,109.0,108.0,106.0,13.3,1505.2,333.8,-0.8,1.8,2471.31,13.29,0.04,270.0
2023-03-03T02:40:03,42.805,6.029,-0.021,0.011,-0.032,110.0,109.0,109.0,13.4,1505.2,338.5,-0.7,1.8,2471.284,13.29,0.023,297.6
2023-03-03T02:43:03,42.805,6.029,-0.029,0.004,-0.013,110.0,108.0,107.0,13.4,1505.2,333.4,-0.7,1.8,2471.301,13.29,0.029,277.8
2023-03-03T02:46:03,42.805,6.029,-0.035,-0.002,-0.036,109.0,108.0,106.0,13.3,1505.2,315.6,-0.8,1.8,2471.287,13.29,0.035,266.7
2023-03-03T02:49:03,42.805,6.029,-0.025,-0.022,-0.016,109.0,107.0,106.0,13.4,1505.2,315.5,-0.8,1.8,2471.288,13.29,0.033,228.7
2023-03-03T02:52:03,42.805,6.029,-0.022,0.0,-0.026,109.0,109.0,106.0,13.4,1505.2,334.6,-0.8,1.8,2471.284,13.29,0.022,270.0
2023-03-03T02:55:03,42.805,6.029,-0.049,0.014,-0.029,110.0,107.0,105.0,13.4,1505.2,334.2,-0.8,1.8,2471.289,13.29,0.05,285.9
2023-03-03T02:58:03,42.805,6.029,-0.04,-0.017,0.003,110.0,107.0,106.0,13.4,1505.2,324.4,-0.8,1.8,2471.261,13.29,0.043,247.0
2023-03-03T03:04:03,42.805,6.029,-0.035,0.0,-0.008,110.0,107.0,105.0,13.4,1505.2,339.5,-0.8,1.8,2471.348,13.29,0.035,270.0
2023-03-03T03:07:03,42.805,6.029,-0.035,-0.009,0.007,109.0,109.0,106.0,13.4,1505.2,328.5,-0.7,1.8,2471.291,13.29,0.036,255.6
2023-03-03T03:10:03,42.805,6.029,-0.039,0.014,-0.03,109.0,107.0,105.0,13.4,1505.2,330.1,-0.7,1.8,2471.328,13.29,0.041,289.7
2023-03-03T03:13:03,42.805,6.029,-0.037,-0.003,-0.014,111.0,108.0,105.0,13.4,1505.2,324.4,-0.8,1.8,2471.329,13.29,0.037,265.4
2023-03-03T03:16:03,42.805,6.029,-0.035,0.005,-0.015,107.0,108.0,106.0,13.4,1505.2,324.3,-0.7,1.8,2471.302,13.29,0.035,278.1
2023-03-03T03:19:03,42.805,6.029,-0.03,0.009,-0.012,108.0,109.0,106.0,13.3,1505.2,320.5,-0.8,1.8,2471.348,13.29,0.031,286.7
2023-03-03T03:22:03,42.805,6.029,-0.039,-0.007,-0.023,110.0,108.0,106.0,13.4,1505.2,327.9,-0.8,1.8,2471.301,13.29,0.039,259.8
2023-03-03T03:25:03,42.805,6.029,-0.042,0.004,0.008,110.0,108.0,106.0,13.3,1505.2,334.6,-0.8,1.8,2471.368,13.29,0.042,275.4
2023-03-03T03:28:03,42.805,6.029,-0.035,0.025,0.0,108.0,108.0,105.0,13.4,1505.2,327.4,-0.7,1.8,2471.309,13.29,0.043,305.5
2023-03-03T03:31:03,42.805,6.029,-0.041,0.007,-0.043,110.0,107.0,106.0,13.4,1505.2,330.2,-0.7,1.8,2471.343,13.29,0.041,279.7
2023-03-03T03:34:03,42.805,6.029,-0.025,-0.009,-0.049,110.0,108.0,106.0,13.4,1505.2,323.7,-0.8,1.8,2471.337,13.29,0.026,250.2
2023-03-03T03:37:03,42.805,6.029,-0.051,0.002,-0.012,109.0,108.0,106.0,13.4,1505.2,322.7,-0.8,1.8,2471.322,13.29,0.051,272.2
2023-03-03T03:40:03,42.805,6.029,-0.053,0.002,-0.01,110.0,108.0,105.0,13.4,1505.2,330.6,-0.8,1.8,2471.352,13.29,0.053,272.2
2023-03-03T03:43:03,42.805,6.029,-0.034,-0.013,-0.013,109.0,108.0,106.0,13.4,1505.2,317.2,-0.7,1.8,2471.314,13.29,0.036,249.1
2023-03-03T03:46:03,42.805,6.029,-0.019,0.0,-0.011,110.0,109.0,106.0,13.4,1505.2,324.4,-0.8,1.8,2471.327,13.29,0.019,270.0
2023-03-03T03:49:03,42.805,6.029,-0.038,-0.002,-0.02,109.0,108.0,106.0,13.4,1505.2,330.7,-0.8,1.8,2471.343,13.29,0.038,267.0
2023-03-03T03:52:03,42.805,6.029,-0.012,-0.006,-0.008,109.0,110.0,106.0,13.3,1505.2,318.3,-0.8,1.8,2471.326,13.29,0.013,243.4
2023-03-03T03:55:03,42.805,6.029,-0.021,0.005,-0.041,109.0,108.0,107.0,13.3,1505.2,325.2,-0.8,1.8,2471.343,13.29,0.021,283.4
2023-03-03T03:58:03,42.805,6.029,-0.028,0.002,-0.008,109.0,108.0,106.0,13.4,1505.2,324.8,-0.8,1.8,2471.311,13.29,0.028,274.1
2023-03-03T04:04:03,42.805,6.029,-0.021,-0.003,-0.03,109.0,108.0,105.0,13.4,1505.2,316.0,-0.8,1.8,2471.356,13.28,0.021,261.9
2023-03-03T04:07:03,42.805,6.029,-0.043,0.0,0.007,109.0,108.0,105.0,13.3,1505.2,332.5,-0.7,1.8,2471.353,13.28,0.043,270.0
2023-03-03T04:10:03,42.805,6.029,-0.048,0.007,-0.006,110.0,108.0,106.0,13.4,1505.2,333.8,-0.8,1.8,2471.367,13.29,0.048,278.3
2023-03-03T04:13:03,42.805,6.029,-0.056,-0.001,-0.006,109.0,109.0,106.0,13.3,1505.2,326.5,-0.8,1.8,2471.388,13.29,0.056,269.0
2023-03-03T04:16:03,42.805,6.029,-0.05,0.008,-0.031,109.0,108.0,105.0,13.3,1505.2,339.4,-0.7,1.8,2471.35,13.29,0.05,279.1
2023-03-03T04:19:03,42.805,6.029,-0.046,-0.003,-0.042,110.0,108.0,105.0,13.3,1505.2,319.9,-0.7,1.8,2471.352,13.29,0.046,266.3
2023-03-03T04:22:03,42.805,6.029,-0.047,-0.01,-0.022,109.0,108.0,105.0,13.3,1505.2,324.1,-0.8,1.8,2471.331,13.29,0.048,258.0
2023-03-03T04:25:03,42.805,6.029,-0.043,-0.006,-0.005,108.0,108.0,107.0,13.3,1505.2,318.8,-0.8,1.8,2471.324,13.29,0.043,262.1
2023-03-03T04:28:03,42.805,6.029,-0.058,-0.018,-0.016,107.0,108.0,106.0,13.3,1505.2,316.1,-0.8,1.8,2471.357,13.29,0.06,252.8
2023-03-03T04:31:03,42.805,6.029,-0.031,-0.002,-0.024,108.0,107.0,106.0,13.4,1505.2,321.0,-0.8,1.8,2471.322,13.29,0.031,266.3
2023-03-03T04:34:03,42.805,6.029,-0.041,-0.011,-0.048,108.0,108.0,106.0,13.4,1505.2,324.9,-0.7,1.8,2471.354,13.29,0.042,255.0
2023-03-03T04:37:03,42.805,6.029,-0.047,0.0,-0.033,108.0,108.0,106.0,13.4,1505.2,328.2,-0.8,1.8,2471.35,13.29,0.047,270.0
2023-03-03T04:40:03,42.805,6.029,-0.046,-0.008,-0.039,109.0,108.0,105.0,13.4,1505.2,335.2,-0.8,1.8,2471.344,13.29,0.046,260.1
2023-03-03T04:43:03,42.805,6.029,-0.069,-0.002,-0.017,110.0,109.0,105.0,13.4,1505.2,316.6,-0.8,1.8,2471.34,13.29,0.069,268.3
2023-03-03T04:46:03,42.805,6.029,-0.032,-0.007,-0.011,108.0,108.0,106.0,13.3,1505.2,327.7,-0.8,1.8,2471.327,13.29,0.032,257.7
2023-03-03T04:49:03,42.805,6.029,-0.038,-0.001,-0.035,110.0,108.0,105.0,13.4,1505.2,326.3,-0.8,1.8,2471.353,13.29,0.038,268.5
2023-03-03T04:52:03,42.805,6.029,-0.051,-0.002,-0.06,108.0,108.0,106.0,13.4,1505.2,320.1,-0.7,1.8,2471.358,13.29,0.051,267.8
2023-03-03T04:55:03,42.805,6.029,-0.041,0.0,-0.028,109.0,108.0,106.0,13.4,1505.2,334.2,-0.7,1.8,2471.325,13.29,0.041,270.0
2023-03-03T04:58:03,42.805,6.029,-0.043,0.01,-0.02,107.0,107.0,106.0,13.4,1505.2,332.9,-0.7,1.8,2471.342,13.29,0.044,283.1
2023-03-03T05:04:03,42.805,6.029,-0.059,0.021,0.004,109.0,109.0,106.0,13.3,1505.2,337.2,-0.8,1.8,2471.4,13.28,0.062,289.6
2023-03-03T05:07:03,42.805,6.029,-0.045,0.003,-0.017,110.0,108.0,106.0,13.4,1505.2,337.6,-0.8,1.8,2471.373,13.28,0.045,273.8
2023-03-03T05:10:03,42.805,6.029,-0.044,0.011,0.002,109.0,109.0,106.0,13.4,1505.2,334.6,-0.8,1.8,2471.36,13.29,0.045,284.0
2023-03-03T05:13:03,42.805,6.029,-0.059,0.017,0.002,108.0,108.0,106.0,13.3,1505.2,331.8,-0.8,1.8,2471.355,13.29,0.061,286.1
2023-03-03T05:16:03,42.805,6.029,-0.061,0.018,0.004,108.0,108.0,106.0,13.3,1505.2,322.1,-0.8,1.9,2471.387,13.29,0.063,286.4
2023-03-03T05:19:03,42.805,6.029,-0.057,-0.002,-0.029,109.0,108.0,105.0,13.4,1505.2,328.2,-0.8,1.8,2471.359,13.29,0.057,268.0
2023-03-03T05:22:03,42.805,6.029,-0.047,-0.002,-0.024,109.0,110.0,106.0,13.3,1505.2,323.2,-0.7,1.8,2471.33,13.29,0.047,267.6
2023-03-03T05:25:03,42.805,6.029,-0.052,-0.005,-0.025,109.0,108.0,106.0,13.4,1505.2,326.8,-0.8,1.8,2471.35,13.29,0.052,264.5
2023-03-03T05:28:03,42.805,6.029,-0.049,0.008,-0.046,108.0,108.0,105.0,13.4,1505.2,321.5,-0.7,1.8,2471.382,13.29,0.049,279.3
2023-03-03T05:31:03,42.805,6.029,-0.044,-0.002,-0.033,109.0,108.0,106.0,13.4,1505.2,320.9,-0.8,1.8,2471.355,13.29,0.044,267.4
2023-03-03T05:34:03,42.805,6.029,-0.055,-0.001,-0.007,109.0,108.0,106.0,13.4,1505.2,323.1,-0.8,1.8,2471.371,13.29,0.055,269.0
2023-03-03T05:37:03,42.805,6.029,-0.056,0.01,-0.009,110.0,109.0,106.0,13.4,1505.2,326.5,-0.8,1.8,2471.366,13.29,0.056,280.1
2023-03-03T05:40:03,42.805,6.029,-0.053,0.006,-0.002,108.0,108.0,105.0,13.4,1505.2,318.8,-0.8,1.8,2471.352,13.29,0.053,276.5
2023-03-03T05:43:03,42.805,6.029,-0.049,0.008,-0.046,110.0,108.0,105.0,13.4,1505.2,316.0,-0.8,1.8,2471.337,13.29,0.049,279.3
2023-03-03T05:46:03,42.805,6.029,-0.054,0.03,-0.017,109.0,108.0,105.0,13.4,1505.2,333.8,-0.8,1.8,2471.359,13.29,0.061,299.1
2023-03-03T05:49:03,42.805,6.029,-0.053,-0.005,-0.014,110.0,109.0,106.0,13.4,1505.2,332.1,-0.8,1.8,2471.352,13.29,0.053,264.6
2023-03-03T05:52:03,42.805,6.029,-0.056,-0.008,-0.024,107.0,108.0,106.0,13.4,1505.2,320.6,-0.7,1.8,2471.391,13.29,0.056,261.9
2023-03-03T05:55:03,42.805,6.029,-0.024,-0.002,-0.003,109.0,108.0,106.0,13.4,1505.2,320.3,-0.8,1.8,2471.367,13.29,0.024,265.2
2023-03-03T05:58:03,42.805,6.029,-0.017,0.009,-0.008,109.0,108.0,107.0,13.3,1505.2,338.0,-0.8,1.8,2471.331,13.29,0.019,297.9
2023-03-03T06:01:03,42.805,6.029,-0.074,0.015,-0.058,109.0,109.0,107.0,13.4,1505.2,326.0,-0.8,1.8,2471.367,13.29,0.075,281.5
2023-03-03T06:04:03,42.805,6.029,-0.06,0.018,-0.025,108.0,107.0,106.0,13.4,1505.2,338.2,-0.8,1.8,2471.367,13.29,0.062,286.7
2023-03-03T06:07:03,42.805,6.029,-0.037,0.022,-0.008,108.0,107.0,106.0,13.4,1505.2,322.2,-0.8,1.8,2471.384,13.29,0.043,300.7
2023-03-03T06:10:03,42.805,6.029,-0.039,0.006,-0.035,108.0,109.0,105.0,13.4,1505.2,334.7,-0.8,1.8,2471.365,13.29,0.039,278.7
2023-03-03T06:13:03,42.805,6.029,-0.06,0.013,-0.015,109.0,108.0,106.0,13.4,1505.2,331.7,-0.7,1.8,2471.372,13.29,0.061,282.2
2023-03-03T06:16:03,42.805,6.029,-0.045,0.006,-0.035,108.0,107.0,106.0,13.3,1505.2,330.2,-0.8,1.8,2471.321,13.29,0.045,277.6
2023-03-03T06:19:03,42.805,6.029,-0.043,0.009,-0.027,110.0,109.0,105.0,13.4,1505.2,332.5,-0.8,1.8,2471.351,13.29,0.043,281.8
2023-03-03T06:22:03,42.805,6.029,-0.042,0.019,-0.019,108.0,107.0,107.0,13.4,1505.2,323.4,-0.8,1.8,2471.34,13.29,0.046,294.3
2023-03-03T06:25:03,42.805,6.029,-0.046,-0.011,-0.033,109.0,108.0,105.0,13.4,1505.2,322.0,-0.8,1.8,2471.35,13.29,0.047,256.6
2023-03-03T06:28:03,42.805,6.029,-0.06,0.009,-0.037,109.0,107.0,105.0,13.4,1505.2,337.8,-0.8,1.8,2471.364,13.29,0.06,278.5
2023-03-03T06:31:03,42.805,6.029,-0.034,0.011,-0.022,108.0,109.0,105.0,13.3,1505.2,324.3,-0.8,1.8,2471.331,13.29,0.035,287.9
2023-03-03T06:34:03,42.805,6.029,-0.079,0.008,-0.011,109.0,107.0,105.0,13.4,1505.2,321.4,-0.8,1.8,2471.341,13.29,0.079,275.8
2023-03-03T06:37:03,42.805,6.029,-0.051,0.006,-0.04,108.0,108.0,107.0,13.3,1505.2,321.4,-0.8,1.8,2471.353,13.29,0.051,276.7
2023-03-03T06:40:03,42.805,6.029,-0.053,0.017,-0.016,109.0,108.0,107.0,13.3,1505.2,330.6,-0.7,1.9,2471.347,13.29,0.055,287.8
2023-03-03T06:43:03,42.805,6.029,-0.058,0.004,-0.024,108.0,108.0,105.0,13.3,1505.2,323.4,-0.7,1.8,2471.384,13.29,0.058,273.9
2023-03-03T06:46:03,42.805,6.029,-0.036,0.032,0.0,107.0,107.0,105.0,13.3,1505.2,337.6,-0.8,1.8,2471.359,13.29,0.048,311.6
2023-03-03T06:49:03,42.805,6.029,-0.053,0.024,-0.028,108.0,108.0,105.0,13.3,1505.2,336.6,-0.8,1.8,2471.324,13.29,0.058,294.4
2023-03-03T06:52:03,42.805,6.029,-0.053,0.001,-0.025,108.0,107.0,108.0,13.4,1505.2,315.5,-0.8,1.8,2471.358,13.29,0.053,271.1
2023-03-03T06:55:03,42.805,6.029,-0.048,0.014,-0.01,108.0,108.0,105.0,13.4,1505.2,320.3,-0.7,1.8,2471.361,13.29,0.05,286.3
2023-03-03T06:58:03,42.805,6.029,-0.051,0.024,-0.011,108.0,108.0,105.0,13.4,1505.2,336.6,-0.8,1.8,2471.336,13.29,0.056,295.2
2023-03-03T07:04:03,42.805,6.029,-0.034,0.008,-0.014,109.0,109.0,104.0,13.4,1505.2,338.7,-0.7,1.8,2471.416,13.28,0.034,283.2
2023-03-03T07:07:03,42.805,6.029,-0.045,0.013,-0.044,107.0,108.0,106.0,13.4,1505.2,339.7,-0.8,1.9,2471.388,13.29,0.046,286.1
2023-03-03T07:10:03,42.805,6.029,-0.07,0.015,-0.01,108.0,109.0,105.0,13.4,1505.2,318.3,-0.8,1.8,2471.42,13.29,0.071,282.1
2023-03-03T07:13:03,42.805,6.029,-0.065,0.015,-0.037,108.0,108.0,105.0,13.4,1505.2,324.4,-0.8,1.8,2471.335,13.29,0.066,283.0
2023-03-03T07:16:03,42.805,6.029,-0.044,0.014,-0.013,108.0,108.0,106.0,13.4,1505.2,323.7,-0.8,1.8,2471.369,13.29,0.046,287.6
2023-03-03T07:19:03,42.805,6.029,-0.044,0.007,0.015,109.0,106.0,105.0,13.4,1505.2,323.4,-0.8,1.8,2471.325,13.29,0.044,279.0
2023-03-03T07:22:03,42.805,6.029,-0.028,0.011,-0.01,109.0,106.0,105.0,13.4,1505.2,333.4,-0.8,1.9,2471.336,13.29,0.03,291.4
2023-03-03T07:25:03,42.805,6.029,-0.025,0.0,-0.005,108.0,107.0,106.0,13.4,1505.2,331.1,-0.8,1.8,2471.323,13.29,0.025,270.0
2023-03-03T07:28:03,42.805,6.029,-0.053,0.009,0.012,108.0,107.0,105.0,13.4,1505.2,322.2,-0.8,1.8,2471.379,13.29,0.053,279.6
2023-03-03T07:31:03,42.805,6.029,-0.04,0.012,-0.006,109.0,108.0,105.0,13.3,1505.2,325.7,-0.8,1.8,2471.37,13.29,0.041,286.7
2023-03-03T07:34:03,42.805,6.029,-0.043,-0.003,-0.019,108.0,107.0,107.0,13.4,1505.2,317.8,-0.8,1.8,2471.338,13.29,0.043,266.0
2023-03-03T07:37:03,42.805,6.029,-0.041,0.015,-0.011,108.0,107.0,105.0,13.4,1505.2,329.0,-0.8,1.8,2471.336,13.29,0.043,290.1
2023-03-03T07:40:03,42.805,6.029,-0.059,0.003,-0.019,109.0,108.0,105.0,13.3,1505.2,321.4,-0.8,1.8,2471.364,13.29,0.059,272.9
2023-03-03T07:43:03,42.805,6.029,-0.041,0.028,-0.001,110.0,108.0,106.0,13.4,1505.2,336.6,-0.7,1.8,2471.319,13.29,0.049,304.3
2023-03-03T07:46:03,42.805,6.029,-0.052,-0.012,-0.024,109.0,108.0,106.0,13.3,1505.2,326.8,-0.8,1.8,2471.361,13.29,0.053,257.0
2023-03-03T07:49:03,42.805,6.029,-0.061,0.03,-0.05,109.0,107.0,105.0,13.4,1505.2,339.6,-0.8,1.8,2471.325,13.29,0.067,296.2
2023-03-03T07:52:03,42.805,6.029,-0.078,0.013,-0.007,109.0,107.0,105.0,13.4,1505.2,323.6,-0.8,1.8,2471.331,13.29,0.079,279.5
2023-03-03T07:55:03,42.805,6.029,-0.042,0.018,-0.029,108.0,107.0,105.0,13.4,1505.2,326.5,-0.8,1.8,2471.315,13.29,0.045,293.2
2023-03-03T07:58:03,42.805,6.029,-0.05,0.011,-0.001,109.0,108.0,106.0,13.3,1505.2,324.4,-0.7,1.8,2471.367,13.29,0.051,282.4
2023-03-03T08:04:03,42.805,6.029,-0.069,0.018,-0.013,108.0,106.0,105.0,13.4,1505.2,330.7,-0.8,1.8,2471.369,13.28,0.071,284.6
2023-03-03T08:07:03,42.805,6.029,-0.048,0.038,-0.02,110.0,108.0,104.0,13.4,1505.2,333.4,-0.8,1.8,2471.358,13.28,0.061,308.4
2023-03-03T08:10:03,42.805,6.029,-0.069,0.035,-0.031,109.0,108.0,106.0,13.4,1505.2,323.2,-0.8,1.8,2471.369,13.29,0.077,296.9
2023-03-03T08:13:03,42.805,6.029,-0.065,0.008,-0.001,107.0,108.0,106.0,13.4,1505.2,318.5,-0.8,1.8,2471.362,13.29,0.065,277.0
2023-03-03T08:16:03,42.805,6.029,-0.055,0.023,-0.015,109.0,109.0,106.0,13.4,1505.2,330.2,-0.8,1.8,2471.321,13.29,0.059,292.7
2023-03-03T08:19:03,42.805,6.029,-0.042,0.005,-0.001,108.0,108.0,105.0,13.4,1505.2,322.7,-0.7,1.8,2471.348,13.29,0.042,276.8
2023-03-03T08:22:03,42.805,6.029,-0.067,0.018,-0.031,108.0,106.0,106.0,13.4,1505.2,334.3,-0.8,1.8,2471.317,13.29,0.069,285.0
2023-03-03T08:25:03,42.805,6.029,-0.061,0.053,0.008,109.0,107.0,105.0,13.3,1505.2,337.8,-0.8,1.8,2471.336,13.29,0.08,311.0
2023-03-03T08:28:03,42.805,6.029,-0.077,0.007,-0.035,109.0,108.0,107.0,13.4,1505.2,321.3,-0.8,1.8,2471.346,13.29,0.077,275.2
2023-03-03T08:31:03,42.805,6.029,-0.039,0.016,-0.024,108.0,108.0,106.0,13.4,1505.2,336.4,-0.8,1.8,2471.321,13.29,0.042,292.3
2023-03-03T08:34:03,42.805,6.029,-0.043,0.0,-0.005,109.0,107.0,107.0,13.4,1505.2,319.9,-0.7,1.8,2471.312,13.29,0.043,270.0
2023-03-03T08:37:03,42.805,6.029,-0.055,0.011,-0.025,108.0,108.0,106.0,13.4,1505.2,329.7,-0.7,1.8,2471.301,13.29,0.056,281.3
2023-03-03T08:40:03,42.805,6.029,-0.066,0.015,0.011,109.0,107.0,105.0,13.4,1505.2,322.7,-0.7,1.8,2471.295,13.29,0.067,282.8
2023-03-03T08:43:03,42.805,6.029,-0.066,0.051,-0.018,108.0,108.0,106.0,13.4,1505.2,325.7,-0.8,1.8,2471.331,13.29,0.083,307.7
2023-03-03T08:46:03,42.805,6.029,-0.082,0.009,-0.044,108.0,107.0,106.0,13.4,1505.2,315.5,-0.8,1.8,2471.311,13.29,0.082,276.3
2023-03-03T08:49:03,42.805,6.029,-0.074,0.03,-0.011,108.0,108.0,107.0,13.4,1505.2,329.7,-0.8,1.8,2471.348,13.29,0.079,292.1
2023-03-03T08:52:03,42.805,6.029,-0.056,0.018,-0.02,109.0,107.0,107.0,13.4,1505.2,339.9,-0.7,1.9,2471.322,13.29,0.058,287.8
2023-03-03T08:55:03,42.805,6.029,-0.07,0.011,0.008,108.0,107.0,107.0,13.3,1505.2,319.3,-0.8,1.8,2471.296,13.29,0.07,278.9
2023-03-03T08:58:03,42.805,6.029,-0.061,0.014,-0.032,107.0,106.0,105.0,13.4,1505.2,320.3,-0.7,1.8,2471.324,13.29,0.062,282.9
2023-03-03T09:04:03,42.805,6.029,-0.064,0.026,-0.009,109.0,108.0,106.0,13.3,1505.2,328.8,-0.8,1.8,2471.329,13.28,0.069,292.1
2023-03-03T09:07:03,42.805,6.029,-0.065,0.016,-0.031,109.0,107.0,106.0,13.3,1505.2,321.0,-0.8,1.8,2471.335,13.28,0.066,283.8
2023-03-03T09:10:03,42.805,6.029,-0.043,0.022,-0.021,108.0,106.0,105.0,13.4,1505.2,338.2,-0.8,1.8,2471.319,13.29,0.048,297.1
2023-03-03T09:13:03,42.805,6.029,-0.064,0.05,-0.016,108.0,107.0,105.0,13.4,1505.2,330.4,-0.8,1.8,2471.312,13.29,0.081,308.0
2023-03-03T09:16:03,42.805,6.029,-0.058,0.036,-0.007,108.0,107.0,104.0,13.4,1505.2,318.8,-0.8,1.8,2471.343,13.29,0.068,301.8
2023-03-03T09:19:03,42.805,6.029,-0.079,0.022,-0.037,108.0,107.0,106.0,13.3,1505.2,327.9,-0.7,1.8,2471.316,13.29,0.082,285.6
2023-03-03T09:22:03,42.805,6.029,-0.068,0.021,-0.008,108.0,107.0,105.0,13.4,1505.2,325.7,-0.8,1.8,2471.334,13.29,0.071,287.2
2023-03-03T09:25:03,42.805,6.029,-0.073,0.034,-0.026,108.0,107.0,106.0,13.4,1505.2,342.1,-0.8,1.8,2471.316,13.29,0.08,295.0
2023-03-03T09:28:03,42.805,6.029,-0.059,0.044,-0.005,107.0,106.0,104.0,13.4,1505.2,341.2,-0.7,1.9,2471.302,13.29,0.073,306.7
2023-03-03T09:31:03,42.805,6.029,-0.059,0.039,0.009,108.0,107.0,106.0,13.4,1505.2,327.6,-0.8,1.8,2471.318,13.29,0.07,303.5
2023-03-03T09:34:03,42.805,6.029,-0.061,0.02,0.005,109.0,106.0,104.0,13.4,1505.2,323.9,-0.7,1.8,2471.305,13.29,0.064,288.1
2023-03-03T09:37:03,42.805,6.029,-0.061,0.023,-0.02,109.0,107.0,105.0,13.3,1505.2,333.8,-0.8,1.8,2471.282,13.29,0.065,290.7
2023-03-03T09:40:03,42.805,6.029,-0.044,0.029,-0.024,108.0,108.0,106.0,13.4,1505.2,335.0,-0.7,1.8,2471.296,13.29,0.052,303.4
2023-03-03T09:43:03,42.805,6.029,-0.061,0.03,0.005,107.0,107.0,105.0,13.4,1505.2,331.6,-0.7,1.8,2471.285,13.29,0.067,296.2
2023-03-03T09:46:03,42.805,6.029,-0.039,0.028,-0.016,109.0,108.0,106.0,13.4,1505.2,321.4,-0.8,1.8,2471.322,13.29,0.048,305.7
2023-03-03T09:49:03,42.805,6.029,-0.049,0.026,-0.017,110.0,107.0,106.0,13.4,1505.2,341.8,-0.8,1.8,2471.287,13.29,0.055,297.9